TimeCST,TemperatureF,Dew PointF,Humidity,Sea Level PressureIn,VisibilityMPH,Wind Direction,Wind SpeedMPH,Gust SpeedMPH,PrecipitationIn,Events,Conditions,WindDirDegrees,DateUTC
12:56 AM,28.9,21.9,75,29.84,-9999.0,WNW,12.7,-,N/A,,Unknown,290,2013-02-13 06:56:00
1:56 AM,32.0,24.1,73,29.81,-9999.0,West,10.4,-,N/A,,Unknown,280,2013-02-13 07:56:00
2:56 AM,32.0,24.1,73,29.81,-9999.0,WNW,13.8,-,N/A,,Unknown,300,2013-02-13 08:56:00
3:56 AM,30.9,25.0,79,29.78,-9999.0,West,9.2,-,N/A,,Unknown,260,2013-02-13 09:56:00
4:56 AM,30.9,23.0,72,29.77,-9999.0,West,16.1,-,N/A,,Unknown,270,2013-02-13 10:56:00
5:56 AM,28.9,21.9,75,29.76,-9999.0,West,10.4,-,N/A,,Unknown,280,2013-02-13 11:56:00
6:56 AM,30.0,21.9,72,29.75,-9999.0,WNW,11.5,-,N/A,,Unknown,290,2013-02-13 12:56:00
7:56 AM,28.9,21.9,75,29.74,-9999.0,West,11.5,-,N/A,,Unknown,280,2013-02-13 13:56:00
8:56 AM,30.9,24.1,76,29.72,-9999.0,West,8.1,-,N/A,,Unknown,270,2013-02-13 14:56:00
9:56 AM,32.0,24.1,73,29.71,-9999.0,West,8.1,-,N/A,,Unknown,260,2013-02-13 15:56:00
10:56 AM,33.1,25.0,72,29.70,-9999.0,WSW,6.9,-,N/A,,Unknown,250,2013-02-13 16:56:00
11:56 AM,33.1,26.1,75,29.68,-9999.0,SW,9.2,-,N/A,,Unknown,220,2013-02-13 17:56:00
12:56 PM,32.0,26.1,79,29.64,-9999.0,South,6.9,-,N/A,,Unknown,170,2013-02-13 18:56:00
1:56 PM,32.0,28.0,85,29.60,-9999.0,SSE,9.2,-,N/A,,Unknown,160,2013-02-13 19:56:00
2:56 PM,35.1,30.9,85,29.59,-9999.0,West,11.5,-,N/A,,Unknown,260,2013-02-13 20:56:00
3:56 PM,34.0,30.0,85,29.59,-9999.0,WNW,16.1,-,N/A,,Unknown,290,2013-02-13 21:56:00
4:56 PM,34.0,30.0,85,29.59,-9999.0,NW,13.8,26.5,N/A,,Unknown,320,2013-02-13 22:56:00
5:56 PM,30.9,30.0,96,29.62,-9999.0,North,13.8,-,N/A,,Unknown,10,2013-02-13 23:56:00
6:56 PM,30.0,28.0,92,29.66,-9999.0,North,18.4,-,N/A,,Unknown,360,2013-02-14 00:56:00
7:56 PM,28.9,27.0,92,29.70,-9999.0,North,13.8,-,N/A,,Unknown,350,2013-02-14 01:56:00
8:56 PM,28.0,27.0,96,29.73,-9999.0,North,17.3,-,0.01,,Unknown,350,2013-02-14 02:56:00
9:56 PM,26.1,25.0,96,29.76,-9999.0,NNW,19.6,-,0.01,,Unknown,340,2013-02-14 03:56:00
10:56 PM,26.1,24.1,92,29.78,-9999.0,North,17.3,-,N/A,,Unknown,350,2013-02-14 04:56:00
11:56 PM,26.1,24.1,92,29.82,-9999.0,NNW,19.6,-,N/A,,Unknown,340,2013-02-14 05:56:00